,,,PA_Meas_PMT16A,,PR_Meas_QMR101_102,,RH_Meas_QMH101,,SR_Meas_QMS101,,TA_Meas_QMH101,,GenWind,,GenWind,
date,time,status,PA,status,PR,status,RH,status,SR,status,TA,status,DirAvg,status,SpdAvg,
2011-07-26, 00:00:04,VALID,1005.25,VALID,0,INVALID,163.83,VALID,0,VALID,22.9039,VALID,350,VALID,0,
2011-07-26, 00:01:04,VALID,1005.22,VALID,0,INVALID,163.815,VALID,0,VALID,22.9233,VALID,350,VALID,0,
2011-07-26, 00:02:04,VALID,1005.22,VALID,0,INVALID,163.845,VALID,0,VALID,22.9039,VALID,350,VALID,0,
2011-07-26, 00:03:04,VALID,1005.2,VALID,0,INVALID,163.83,VALID,0,VALID,22.9233,VALID,350,VALID,0,
2011-07-26, 00:04:04,VALID,1005.18,VALID,0,INVALID,163.83,VALID,0,VALID,22.9021,VALID,350,VALID,0,
2011-07-26, 00:05:04,VALID,1005.21,VALID,0,INVALID,163.845,VALID,0,VALID,22.9233,VALID,350,VALID,0,
2011-07-26, 00:06:04,VALID,1005.2,VALID,0,INVALID,163.853,VALID,0,VALID,22.9039,VALID,350,VALID,0,
2011-07-26, 00:07:04,VALID,1005.19,VALID,0,INVALID,163.807,VALID,0,VALID,22.8844,VALID,350,VALID,0,
2011-07-26, 00:08:04,VALID,1005.19,VALID,0,INVALID,163.853,VALID,0,VALID,22.8844,VALID,350,VALID,0,
2011-07-26, 00:09:04,VALID,1005.16,VALID,0,INVALID,163.823,VALID,0.100563,VALID,22.8844,VALID,350,VALID,0,
2011-07-26, 00:10:04,VALID,1005.16,VALID,0,INVALID,163.868,VALID,0,VALID,22.8649,VALID,350,VALID,0,
2011-07-26, 00:11:04,VALID,1005.14,VALID,0,INVALID,163.853,VALID,0,VALID,22.8438,VALID,350,VALID,0,
2011-07-26, 00:12:04,VALID,1005.13,VALID,0,INVALID,163.853,VALID,0,VALID,22.8243,VALID,350,VALID,0,
2011-07-26, 00:13:04,VALID,1005.07,VALID,0,INVALID,163.845,VALID,0,VALID,22.8243,VALID,350,VALID,0,
2011-07-26, 00:14:04,VALID,1005.06,VALID,0,INVALID,163.807,VALID,0,VALID,22.8649,VALID,350,VALID,0,
2011-07-26, 00:15:04,VALID,1005.06,VALID,0,INVALID,163.914,VALID,0,VALID,22.8649,VALID,350,VALID,0,
2011-07-26, 00:16:04,VALID,1005.07,VALID,0,INVALID,163.845,VALID,0,VALID,22.8649,VALID,350,VALID,0,
2011-07-26, 00:17:04,VALID,1005.05,VALID,0,INVALID,163.815,VALID,0,VALID,22.8455,VALID,350,VALID,0,
2011-07-26, 00:18:04,VALID,1005.09,VALID,0,INVALID,163.823,VALID,0,VALID,22.8455,VALID,350,VALID,0,
2011-07-26, 00:19:04,VALID,1005.06,VALID,0,INVALID,163.838,VALID,0,VALID,22.8455,VALID,350,VALID,0,
2011-07-26, 00:20:04,VALID,1005.06,VALID,0,INVALID,163.823,VALID,0,VALID,22.826,VALID,350,VALID,0,
2011-07-26, 00:21:04,VALID,1005.04,VALID,0,INVALID,163.853,VALID,0.100563,VALID,22.8243,VALID,350,VALID,0,
2011-07-26, 00:22:04,VALID,1005.01,VALID,0,INVALID,163.876,VALID,0,VALID,22.8048,VALID,350,VALID,0,
2011-07-26, 00:23:04,VALID,1004.98,VALID,0,INVALID,163.876,VALID,0,VALID,22.826,VALID,353,VALID,0,
2011-07-26, 00:24:04,VALID,1004.98,VALID,0,INVALID,163.838,VALID,0,VALID,22.7871,VALID,359,VALID,0,
2011-07-26, 00:25:04,VALID,1004.97,VALID,0,INVALID,163.868,VALID,0,VALID,22.7677,VALID,359,VALID,0,
2011-07-26, 00:26:04,VALID,1004.99,VALID,0,INVALID,163.83,VALID,0,VALID,22.7465,VALID,359,VALID,0,
2011-07-26, 00:27:04,VALID,1004.98,VALID,0,INVALID,163.868,VALID,0.100563,VALID,22.7465,VALID,359,VALID,0,
2011-07-26, 00:28:04,VALID,1004.97,VALID,0,INVALID,163.845,VALID,0.100563,VALID,22.727,VALID,359,VALID,0,
2011-07-26, 00:29:04,VALID,1004.96,VALID,0,INVALID,163.845,VALID,0,VALID,22.7482,VALID,359,VALID,0,
2011-07-26, 00:30:04,VALID,1004.94,VALID,0,INVALID,163.853,VALID,0,VALID,22.7287,VALID,359,VALID,0,
2011-07-26, 00:31:04,VALID,1004.93,VALID,0,INVALID,163.853,VALID,0,VALID,22.7287,VALID,359,VALID,0,
2011-07-26, 00:32:04,VALID,1004.93,VALID,0,INVALID,163.845,VALID,0,VALID,22.7482,VALID,359,VALID,0,
2011-07-26, 00:33:04,VALID,1004.92,VALID,0,INVALID,163.861,VALID,0,VALID,22.7465,VALID,359,VALID,0,
2011-07-26, 00:34:04,VALID,1004.91,VALID,0,INVALID,163.853,VALID,0,VALID,22.7677,VALID,359,VALID,0,
2011-07-26, 00:35:04,VALID,1004.91,VALID,0,INVALID,163.845,VALID,0,VALID,22.7871,VALID,2,VALID,0,
2011-07-26, 00:36:04,VALID,1004.89,VALID,0,INVALID,163.853,VALID,0,VALID,22.7482,VALID,2,VALID,0,
2011-07-26, 00:37:04,VALID,1004.92,VALID,0,INVALID,163.853,VALID,0,VALID,22.727,VALID,2,VALID,0,
2011-07-26, 00:38:04,VALID,1004.9,VALID,0,INVALID,163.83,VALID,0,VALID,22.7871,VALID,1,VALID,0,
2011-07-26, 00:39:04,VALID,1004.89,VALID,0,INVALID,163.876,VALID,0,VALID,22.7659,VALID,1,VALID,0,
2011-07-26, 00:40:04,VALID,1004.88,VALID,0,INVALID,163.861,VALID,0,VALID,22.7888,VALID,1,VALID,0,
2011-07-26, 00:41:04,VALID,1004.89,VALID,0,INVALID,163.83,VALID,0,VALID,22.7482,VALID,1,VALID,0,
2011-07-26, 00:42:04,VALID,1004.88,VALID,0,INVALID,163.845,VALID,0,VALID,22.7482,VALID,1,VALID,0,
2011-07-26, 00:43:04,VALID,1004.9,VALID,0,INVALID,163.815,VALID,0,VALID,22.7287,VALID,1,VALID,0,
2011-07-26, 00:44:04,VALID,1004.92,VALID,0,INVALID,163.845,VALID,0,VALID,22.7093,VALID,1,VALID,0,
2011-07-26, 00:45:04,VALID,1004.91,VALID,0,INVALID,163.83,VALID,0,VALID,22.711,VALID,1,VALID,0,
2011-07-26, 00:46:04,VALID,1004.92,VALID,0,INVALID,163.815,VALID,0,VALID,22.7093,VALID,1,VALID,0,
2011-07-26, 00:47:04,VALID,1004.88,VALID,0,INVALID,163.838,VALID,0,VALID,22.7287,VALID,1,VALID,0,
2011-07-26, 00:48:04,VALID,1004.88,VALID,0,INVALID,163.83,VALID,0,VALID,22.7287,VALID,1,VALID,0,
2011-07-26, 00:49:04,VALID,1004.85,VALID,0,INVALID,163.838,VALID,0,VALID,22.7482,VALID,1,VALID,0,
2011-07-26, 00:50:04,VALID,1004.86,VALID,0,INVALID,163.891,VALID,0,VALID,22.7465,VALID,1,VALID,0,
2011-07-26, 00:51:04,VALID,1004.88,VALID,0,INVALID,163.853,VALID,0,VALID,22.7677,VALID,1,VALID,0,
2011-07-26, 00:52:04,VALID,1004.86,VALID,0,INVALID,163.823,VALID,0,VALID,22.7482,VALID,1,VALID,0,
2011-07-26, 00:53:04,VALID,1004.89,VALID,0,INVALID,163.845,VALID,0,VALID,22.7482,VALID,1,VALID,0,
2011-07-26, 00:54:04,VALID,1004.92,VALID,0,INVALID,163.83,VALID,0,VALID,22.7482,VALID,1,VALID,0,
2011-07-26, 00:55:04,VALID,1004.94,VALID,0,INVALID,163.845,VALID,0,VALID,22.7482,VALID,1,VALID,0,
2011-07-26, 00:56:04,VALID,1004.93,VALID,0,INVALID,163.868,VALID,0,VALID,22.7677,VALID,1,VALID,0,
2011-07-26, 00:57:04,VALID,1004.92,VALID,0,INVALID,163.823,VALID,0,VALID,22.7482,VALID,1,VALID,0,
2011-07-26, 00:58:04,VALID,1004.93,VALID,0,INVALID,163.83,VALID,0,VALID,22.7287,VALID,1,VALID,0,
2011-07-26, 00:59:04,VALID,1004.93,VALID,0,INVALID,163.815,VALID,0,VALID,22.7093,VALID,1,VALID,0,
2011-07-26, 01:00:04,VALID,1004.95,VALID,0,INVALID,163.83,VALID,0,VALID,22.7287,VALID,1,VALID,0,
2011-07-26, 01:01:04,VALID,1004.94,VALID,0,INVALID,163.891,VALID,0,VALID,22.7093,VALID,1,VALID,0,
2011-07-26, 01:02:04,VALID,1004.92,VALID,0,INVALID,163.861,VALID,0,VALID,22.6898,VALID,1,VALID,0,
2011-07-26, 01:03:04,VALID,1004.92,VALID,0,INVALID,163.922,VALID,0,VALID,22.7093,VALID,1,VALID,0,
2011-07-26, 01:04:04,VALID,1004.9,VALID,0,INVALID,163.845,VALID,0,VALID,22.7093,VALID,1,VALID,0,
2011-07-26, 01:05:04,VALID,1004.91,VALID,0,INVALID,163.868,VALID,0,VALID,22.7287,VALID,1,VALID,0,
2011-07-26, 01:06:04,VALID,1004.89,VALID,0,INVALID,163.845,VALID,0,VALID,22.7482,VALID,1,VALID,0,
2011-07-26, 01:07:04,VALID,1004.9,VALID,0,INVALID,163.853,VALID,0,VALID,22.7482,VALID,1,VALID,0,
2011-07-26, 01:08:04,VALID,1004.87,VALID,0,INVALID,163.83,VALID,0,VALID,22.7482,VALID,1,VALID,0,
2011-07-26, 01:09:04,VALID,1004.92,VALID,0,INVALID,163.861,VALID,0,VALID,22.7482,VALID,1,VALID,0,
2011-07-26, 01:10:04,VALID,1004.91,VALID,0,INVALID,163.845,VALID,0,VALID,22.7287,VALID,1,VALID,0,
2011-07-26, 01:11:04,VALID,1004.9,VALID,0,INVALID,163.861,VALID,0,VALID,22.7093,VALID,1,VALID,0,
2011-07-26, 01:12:04,VALID,1004.92,VALID,0,INVALID,163.922,VALID,0,VALID,22.7093,VALID,1,VALID,0,
2011-07-26, 01:13:04,VALID,1004.88,VALID,0,INVALID,163.838,VALID,0,VALID,22.7287,VALID,1,VALID,0,
2011-07-26, 01:14:04,VALID,1004.91,VALID,0,INVALID,163.83,VALID,0,VALID,22.7287,VALID,1,VALID,0,
2011-07-26, 01:15:04,VALID,1004.9,VALID,0,INVALID,163.884,VALID,0,VALID,22.7482,VALID,1,VALID,0,
2011-07-26, 01:16:04,VALID,1004.89,VALID,0,INVALID,163.838,VALID,0,VALID,22.7482,VALID,1,VALID,0,
2011-07-26, 01:17:04,VALID,1004.86,VALID,0,INVALID,163.838,VALID,0,VALID,22.7482,VALID,1,VALID,0,
2011-07-26, 01:18:04,VALID,1004.85,VALID,0,INVALID,163.8,VALID,0,VALID,22.7888,VALID,1,VALID,0,
2011-07-26, 01:19:04,VALID,1004.82,VALID,0,INVALID,163.845,VALID,0,VALID,22.7677,VALID,1,VALID,0,
2011-07-26, 01:20:04,VALID,1004.83,VALID,0,INVALID,163.899,VALID,0,VALID,22.7694,VALID,1,VALID,0,
2011-07-26, 01:21:04,VALID,1004.8,VALID,0,INVALID,163.838,VALID,0,VALID,22.7482,VALID,1,VALID,0,
2011-07-26, 01:22:04,VALID,1004.83,VALID,0,INVALID,163.868,VALID,0,VALID,22.7287,VALID,1,VALID,0,
2011-07-26, 01:23:04,VALID,1004.82,VALID,0,INVALID,163.83,VALID,0,VALID,22.7093,VALID,1,VALID,0,
2011-07-26, 01:24:04,VALID,1004.84,VALID,0,INVALID,163.853,VALID,0,VALID,22.7305,VALID,1,VALID,0,
2011-07-26, 01:25:04,VALID,1004.82,VALID,0,INVALID,163.845,VALID,0,VALID,22.7093,VALID,1,VALID,0,
2011-07-26, 01:26:04,VALID,1004.83,VALID,0,INVALID,163.83,VALID,0,VALID,22.7093,VALID,1,VALID,0,
2011-07-26, 01:27:04,VALID,1004.85,VALID,0,INVALID,163.838,VALID,0,VALID,22.7305,VALID,1,VALID,0,
2011-07-26, 01:28:04,VALID,1004.85,VALID,0,INVALID,163.838,VALID,0,VALID,22.7287,VALID,1,VALID,0,
2011-07-26, 01:29:04,VALID,1004.82,VALID,0,INVALID,163.815,VALID,0,VALID,22.7482,VALID,1,VALID,0,
2011-07-26, 01:30:04,VALID,1004.8,VALID,0,INVALID,163.815,VALID,0,VALID,22.7482,VALID,1,VALID,0,
2011-07-26, 01:31:04,VALID,1004.82,VALID,0,INVALID,163.861,VALID,0,VALID,22.7677,VALID,1,VALID,0,
2011-07-26, 01:32:04,VALID,1004.8,VALID,0,INVALID,163.838,VALID,0,VALID,22.7482,VALID,1,VALID,0,
2011-07-26, 01:33:04,VALID,1004.83,VALID,0,INVALID,163.83,VALID,0,VALID,22.7694,VALID,1,VALID,0,
2011-07-26, 01:34:04,VALID,1004.8,VALID,0,INVALID,163.845,VALID,0,VALID,22.7287,VALID,1,VALID,0,
2011-07-26, 01:35:04,VALID,1004.82,VALID,0,INVALID,163.861,VALID,0,VALID,22.7482,VALID,1,VALID,0,
2011-07-26, 01:36:04,VALID,1004.83,VALID,0,INVALID,163.853,VALID,0,VALID,22.7482,VALID,1,VALID,0,
2011-07-26, 01:37:04,VALID,1004.82,VALID,0,INVALID,163.884,VALID,0,VALID,22.7093,VALID,1,VALID,0,
2011-07-26, 01:38:04,VALID,1004.83,VALID,0,INVALID,163.853,VALID,0,VALID,22.6686,VALID,1,VALID,0,
2011-07-26, 01:39:04,VALID,1004.78,VALID,0,INVALID,163.838,VALID,0,VALID,22.6704,VALID,1,VALID,0,
2011-07-26, 01:40:04,VALID,1004.79,VALID,0,INVALID,163.838,VALID,0,VALID,22.6704,VALID,1,VALID,0,
2011-07-26, 01:41:04,VALID,1004.74,VALID,0,INVALID,163.83,VALID,0,VALID,22.6297,VALID,1,VALID,0,
2011-07-26, 01:42:04,VALID,1004.74,VALID,0,INVALID,163.861,VALID,0,VALID,22.6509,VALID,1,VALID,0,
2011-07-26, 01:43:04,VALID,1004.74,VALID,0,INVALID,163.838,VALID,0,VALID,22.6704,VALID,1,VALID,0,
2011-07-26, 01:44:04,VALID,1004.71,VALID,0,INVALID,163.83,VALID,0,VALID,22.6898,VALID,1,VALID,0,
2011-07-26, 01:45:04,VALID,1004.73,VALID,0,INVALID,163.899,VALID,0,VALID,22.6704,VALID,1,VALID,0,
2011-07-26, 01:46:04,VALID,1004.73,VALID,0,INVALID,163.838,VALID,0,VALID,22.6704,VALID,1,VALID,0,
2011-07-26, 01:47:04,VALID,1004.72,VALID,0,INVALID,163.823,VALID,0,VALID,22.6492,VALID,1,VALID,0,
2011-07-26, 01:48:04,VALID,1004.73,VALID,0,INVALID,163.838,VALID,0,VALID,22.6898,VALID,1,VALID,0,
2011-07-26, 01:49:04,VALID,1004.75,VALID,0,INVALID,163.845,VALID,0,VALID,22.6898,VALID,1,VALID,0,
2011-07-26, 01:50:04,VALID,1004.72,VALID,0,INVALID,163.845,VALID,0,VALID,22.6898,VALID,1,VALID,0,
2011-07-26, 01:51:04,VALID,1004.72,VALID,0,INVALID,163.861,VALID,0,VALID,22.6881,VALID,1,VALID,0,
2011-07-26, 01:52:04,VALID,1004.75,VALID,0,INVALID,163.83,VALID,0,VALID,22.7287,VALID,1,VALID,0,
2011-07-26, 01:53:04,VALID,1004.77,VALID,0,INVALID,163.83,VALID,0,VALID,22.727,VALID,1,VALID,0,
2011-07-26, 01:54:04,VALID,1004.76,VALID,0,INVALID,163.861,VALID,0,VALID,22.7482,VALID,1,VALID,0,
2011-07-26, 01:55:04,VALID,1004.81,VALID,0,INVALID,163.853,VALID,0,VALID,22.7093,VALID,1,VALID,0,
2011-07-26, 01:56:04,VALID,1004.78,VALID,0,INVALID,163.838,VALID,0.100563,VALID,22.6881,VALID,1,VALID,0,
2011-07-26, 01:57:04,VALID,1004.75,VALID,0,INVALID,163.861,VALID,0.100563,VALID,22.6669,VALID,1,VALID,0,
2011-07-26, 01:58:04,VALID,1004.76,VALID,0,INVALID,163.845,VALID,0,VALID,22.6881,VALID,1,VALID,0,
2011-07-26, 01:59:04,VALID,1004.77,VALID,0,INVALID,163.899,VALID,0,VALID,22.727,VALID,1,VALID,0,
2011-07-26, 02:00:04,VALID,1004.73,VALID,0,INVALID,163.838,VALID,0,VALID,22.727,VALID,360,VALID,0,
2011-07-26, 02:01:04,VALID,1004.77,VALID,0,INVALID,163.815,VALID,0,VALID,22.7482,VALID,360,VALID,0,
2011-07-26, 02:02:04,VALID,1004.76,VALID,0,INVALID,163.861,VALID,0,VALID,22.727,VALID,360,VALID,0,
2011-07-26, 02:03:04,VALID,1004.78,VALID,0,INVALID,163.815,VALID,0,VALID,22.7076,VALID,360,VALID,0,
2011-07-26, 02:04:04,VALID,1004.8,VALID,0,INVALID,163.823,VALID,0,VALID,22.7482,VALID,360,VALID,0,
2011-07-26, 02:05:04,VALID,1004.77,VALID,0,INVALID,163.83,VALID,0,VALID,22.7076,VALID,360,VALID,0,
2011-07-26, 02:06:04,VALID,1004.74,VALID,0,INVALID,163.853,VALID,0,VALID,22.7499,VALID,360,VALID,0,
2011-07-26, 02:07:04,VALID,1004.73,VALID,0,INVALID,163.838,VALID,0,VALID,22.7287,VALID,360,VALID,0,
2011-07-26, 02:08:04,VALID,1004.74,VALID,0,INVALID,163.861,VALID,0,VALID,22.7076,VALID,360,VALID,0,
2011-07-26, 02:09:04,VALID,1004.73,VALID,0,INVALID,163.861,VALID,0,VALID,22.7287,VALID,360,VALID,0,
2011-07-26, 02:10:04,VALID,1004.73,VALID,0,INVALID,163.83,VALID,0,VALID,22.7677,VALID,360,VALID,0,
2011-07-26, 02:11:04,VALID,1004.75,VALID,0,INVALID,163.838,VALID,0,VALID,22.7677,VALID,360,VALID,0,
2011-07-26, 02:12:04,VALID,1004.76,VALID,0,INVALID,163.83,VALID,0.100563,VALID,22.7465,VALID,360,VALID,0,
2011-07-26, 02:13:04,VALID,1004.75,VALID,0,INVALID,163.845,VALID,0,VALID,22.7482,VALID,360,VALID,0,
2011-07-26, 02:14:04,VALID,1004.75,VALID,0,INVALID,163.815,VALID,0,VALID,22.7482,VALID,360,VALID,0,
2011-07-26, 02:15:04,VALID,1004.71,VALID,0,INVALID,163.845,VALID,0.100563,VALID,22.7482,VALID,360,VALID,0,
2011-07-26, 02:16:04,VALID,1004.72,VALID,0,INVALID,163.83,VALID,0,VALID,22.7482,VALID,360,VALID,0,
2011-07-26, 02:17:04,VALID,1004.71,VALID,0,INVALID,163.83,VALID,0,VALID,22.7482,VALID,360,VALID,0,
2011-07-26, 02:18:04,VALID,1004.71,VALID,0,INVALID,163.83,VALID,0,VALID,22.7482,VALID,360,VALID,0,
2011-07-26, 02:19:04,VALID,1004.75,VALID,0,INVALID,163.823,VALID,0,VALID,22.7482,VALID,360,VALID,0,
2011-07-26, 02:20:04,VALID,1004.73,VALID,0,INVALID,163.853,VALID,0,VALID,22.7482,VALID,360,VALID,0,
2011-07-26, 02:21:04,VALID,1004.74,VALID,0,INVALID,163.83,VALID,0,VALID,22.7287,VALID,360,VALID,0,
2011-07-26, 02:22:04,VALID,1004.71,VALID,0,INVALID,163.845,VALID,0,VALID,22.7482,VALID,360,VALID,0,
2011-07-26, 02:23:04,VALID,1004.73,VALID,0,INVALID,163.83,VALID,0,VALID,22.7482,VALID,360,VALID,0,
2011-07-26, 02:24:04,VALID,1004.75,VALID,0,INVALID,163.823,VALID,0,VALID,22.7465,VALID,360,VALID,0,
2011-07-26, 02:25:04,VALID,1004.72,VALID,0,INVALID,163.83,VALID,0,VALID,22.7871,VALID,360,VALID,0,
2011-07-26, 02:26:04,VALID,1004.72,VALID,0,INVALID,163.83,VALID,0.100563,VALID,22.7465,VALID,360,VALID,0,
2011-07-26, 02:27:04,VALID,1004.73,VALID,0,INVALID,163.838,VALID,0,VALID,22.7482,VALID,360,VALID,0,
2011-07-26, 02:28:04,VALID,1004.69,VALID,0,INVALID,163.868,VALID,0,VALID,22.727,VALID,360,VALID,0,
2011-07-26, 02:29:04,VALID,1004.69,VALID,0,INVALID,163.853,VALID,0,VALID,22.7076,VALID,360,VALID,0,
2011-07-26, 02:30:04,VALID,1004.68,VALID,0,INVALID,163.845,VALID,0,VALID,22.7482,VALID,360,VALID,0,
2011-07-26, 02:31:04,VALID,1004.68,VALID,0,INVALID,163.838,VALID,0,VALID,22.7287,VALID,360,VALID,0,
2011-07-26, 02:32:04,VALID,1004.61,VALID,0,INVALID,163.853,VALID,0.100563,VALID,22.7093,VALID,360,VALID,0,
2011-07-26, 02:33:04,VALID,1004.6,VALID,0,INVALID,163.868,VALID,0,VALID,22.7093,VALID,360,VALID,0,
2011-07-26, 02:34:04,VALID,1004.6,VALID,0,INVALID,163.823,VALID,0,VALID,22.7287,VALID,360,VALID,0,
2011-07-26, 02:35:04,VALID,1004.58,VALID,0,INVALID,163.815,VALID,0,VALID,22.727,VALID,360,VALID,0,
2011-07-26, 02:36:04,VALID,1004.56,VALID,0,INVALID,163.838,VALID,0.100563,VALID,22.7287,VALID,360,VALID,0,
2011-07-26, 02:37:04,VALID,1004.57,VALID,0,INVALID,163.853,VALID,0,VALID,22.7093,VALID,360,VALID,0,
2011-07-26, 02:38:04,VALID,1004.53,VALID,0,INVALID,163.853,VALID,0,VALID,22.711,VALID,360,VALID,0,
2011-07-26, 02:39:04,VALID,1004.51,VALID,0,INVALID,163.861,VALID,0,VALID,22.7093,VALID,360,VALID,0,
2011-07-26, 02:40:04,VALID,1004.48,VALID,0,INVALID,163.853,VALID,0,VALID,22.6686,VALID,360,VALID,0,
2011-07-26, 02:41:04,VALID,1004.47,VALID,0,INVALID,163.853,VALID,0,VALID,22.6686,VALID,360,VALID,0,
2011-07-26, 02:42:04,VALID,1004.46,VALID,0,INVALID,163.83,VALID,0,VALID,22.7093,VALID,360,VALID,0,
2011-07-26, 02:43:04,VALID,1004.45,VALID,0,INVALID,163.838,VALID,0,VALID,22.7093,VALID,359,VALID,0,
2011-07-26, 02:44:04,VALID,1004.47,VALID,0,INVALID,163.861,VALID,0,VALID,22.6898,VALID,359,VALID,0,
2011-07-26, 02:45:04,VALID,1004.44,VALID,0,INVALID,163.853,VALID,0,VALID,22.6686,VALID,359,VALID,0,
2011-07-26, 02:46:04,VALID,1004.42,VALID,0,INVALID,163.83,VALID,0.100563,VALID,22.6686,VALID,359,VALID,0,
2011-07-26, 02:47:04,VALID,1004.41,VALID,0,INVALID,163.845,VALID,0.100563,VALID,22.6704,VALID,359,VALID,0,
2011-07-26, 02:48:04,VALID,1004.38,VALID,0,INVALID,163.845,VALID,0,VALID,22.6704,VALID,359,VALID,0,
2011-07-26, 02:49:04,VALID,1004.36,VALID,0,INVALID,163.891,VALID,0,VALID,22.6509,VALID,359,VALID,0,
2011-07-26, 02:50:04,VALID,1004.32,VALID,0,INVALID,163.845,VALID,0,VALID,22.6297,VALID,359,VALID,0,
2011-07-26, 02:51:04,VALID,1004.32,VALID,0,INVALID,163.845,VALID,0,VALID,22.6704,VALID,9,VALID,0,
2011-07-26, 02:52:04,VALID,1004.28,VALID,0,INVALID,163.861,VALID,0,VALID,22.6492,VALID,9,VALID,0,
2011-07-26, 02:53:04,VALID,1004.32,VALID,0,INVALID,163.876,VALID,0,VALID,22.6492,VALID,9,VALID,0,
2011-07-26, 02:54:04,VALID,1004.3,VALID,0,INVALID,163.845,VALID,0,VALID,22.6704,VALID,9,VALID,0,
2011-07-26, 02:55:04,VALID,1004.31,VALID,0,INVALID,163.876,VALID,0,VALID,22.7093,VALID,6,VALID,0,
2011-07-26, 02:56:04,VALID,1004.31,VALID,0,INVALID,163.838,VALID,0,VALID,22.6492,VALID,6,VALID,0,
2011-07-26, 02:57:04,VALID,1004.31,VALID,0,INVALID,163.876,VALID,0,VALID,22.6315,VALID,6,VALID,0,
2011-07-26, 02:58:04,VALID,1004.29,VALID,0,INVALID,163.845,VALID,0,VALID,22.6315,VALID,6,VALID,0,
2011-07-26, 02:59:04,VALID,1004.27,VALID,0,INVALID,163.884,VALID,0,VALID,22.6103,VALID,6,VALID,0,
2011-07-26, 03:00:04,VALID,1004.29,VALID,0,INVALID,163.853,VALID,0,VALID,22.5925,VALID,6,VALID,0,
2011-07-26, 03:01:04,VALID,1004.24,VALID,0,INVALID,163.868,VALID,0,VALID,22.612,VALID,6,VALID,0,
2011-07-26, 03:02:04,VALID,1004.27,VALID,0,INVALID,163.861,VALID,0,VALID,22.612,VALID,6,VALID,0,
2011-07-26, 03:03:04,VALID,1004.27,VALID,0,INVALID,163.853,VALID,0,VALID,22.6103,VALID,6,VALID,0,
2011-07-26, 03:04:04,VALID,1004.25,VALID,0,INVALID,163.853,VALID,0,VALID,22.6103,VALID,6,VALID,0,
2011-07-26, 03:05:04,VALID,1004.24,VALID,0,INVALID,163.861,VALID,0,VALID,22.612,VALID,6,VALID,0,
2011-07-26, 03:06:04,VALID,1004.23,VALID,0,INVALID,163.853,VALID,0,VALID,22.5731,VALID,6,VALID,0,
2011-07-26, 03:07:04,VALID,1004.21,VALID,0,INVALID,163.861,VALID,0,VALID,22.5536,VALID,6,VALID,0,
2011-07-26, 03:08:04,VALID,1004.21,VALID,0,INVALID,163.853,VALID,0,VALID,22.5325,VALID,6,VALID,0,
2011-07-26, 03:09:04,VALID,1004.2,VALID,0,INVALID,163.853,VALID,0,VALID,22.513,VALID,6,VALID,0,
2011-07-26, 03:10:04,VALID,1004.19,VALID,0,INVALID,163.868,VALID,0,VALID,22.5342,VALID,6,VALID,0,
2011-07-26, 03:11:04,VALID,1004.2,VALID,0,INVALID,163.845,VALID,0,VALID,22.513,VALID,6,VALID,0,
2011-07-26, 03:12:04,VALID,1004.21,VALID,0,INVALID,163.845,VALID,0,VALID,22.5536,VALID,6,VALID,0,
2011-07-26, 03:13:04,VALID,1004.22,VALID,0,INVALID,163.861,VALID,0,VALID,22.513,VALID,6,VALID,0,
2011-07-26, 03:14:04,VALID,1004.2,VALID,0,INVALID,163.914,VALID,0,VALID,22.4953,VALID,8,VALID,0,
2011-07-26, 03:15:04,VALID,1004.21,VALID,0,INVALID,163.853,VALID,0,VALID,22.4953,VALID,22,VALID,0,
2011-07-26, 03:16:04,VALID,1004.19,VALID,0,INVALID,163.876,VALID,0,VALID,22.4936,VALID,22,VALID,0,
2011-07-26, 03:17:04,VALID,1004.23,VALID,0,INVALID,163.845,VALID,0,VALID,22.5342,VALID,22,VALID,0,
2011-07-26, 03:18:04,VALID,1004.21,VALID,0,INVALID,163.853,VALID,0,VALID,22.5147,VALID,22,VALID,0,
2011-07-26, 03:19:04,VALID,1004.24,VALID,0,INVALID,163.861,VALID,0,VALID,22.4741,VALID,22,VALID,0,
2011-07-26, 03:20:04,VALID,1004.23,VALID,0,INVALID,163.884,VALID,0,VALID,22.513,VALID,22,VALID,0,
2011-07-26, 03:21:04,VALID,1004.22,VALID,0,INVALID,163.861,VALID,0,VALID,22.5536,VALID,22,VALID,0,
2011-07-26, 03:22:04,VALID,1004.22,VALID,0,INVALID,163.868,VALID,0,VALID,22.5731,VALID,22,VALID,0,
2011-07-26, 03:23:04,VALID,1004.21,VALID,0,INVALID,163.838,VALID,0,VALID,22.5731,VALID,22,VALID,0,
2011-07-26, 03:24:04,VALID,1004.18,VALID,0,INVALID,163.845,VALID,0,VALID,22.5536,VALID,22,VALID,0,
2011-07-26, 03:25:04,VALID,1004.2,VALID,0,INVALID,163.868,VALID,0,VALID,22.5342,VALID,22,VALID,0,
2011-07-26, 03:26:04,VALID,1004.25,VALID,0,INVALID,163.906,VALID,0,VALID,22.5342,VALID,22,VALID,0,
2011-07-26, 03:27:04,VALID,1004.21,VALID,0,INVALID,163.861,VALID,0,VALID,22.5536,VALID,22,VALID,0,
2011-07-26, 03:28:04,VALID,1004.22,VALID,0,INVALID,163.868,VALID,0,VALID,22.5536,VALID,22,VALID,0,
2011-07-26, 03:29:04,VALID,1004.21,VALID,0,INVALID,163.861,VALID,0,VALID,22.5536,VALID,22,VALID,0,
2011-07-26, 03:30:04,VALID,1004.23,VALID,0,INVALID,163.884,VALID,0,VALID,22.513,VALID,22,VALID,0,
2011-07-26, 03:31:04,VALID,1004.2,VALID,0,INVALID,163.853,VALID,0,VALID,22.5147,VALID,22,VALID,0,
2011-07-26, 03:32:04,VALID,1004.23,VALID,0,INVALID,163.876,VALID,0,VALID,22.4741,VALID,22,VALID,0,
2011-07-26, 03:33:04,VALID,1004.24,VALID,0,INVALID,163.838,VALID,0,VALID,22.4758,VALID,22,VALID,0,
2011-07-26, 03:34:04,VALID,1004.24,VALID,0,INVALID,163.876,VALID,0,VALID,22.4758,VALID,22,VALID,0,
2011-07-26, 03:35:04,VALID,1004.21,VALID,0,INVALID,163.861,VALID,0,VALID,22.4352,VALID,22,VALID,0,
2011-07-26, 03:36:04,VALID,1004.24,VALID,0,INVALID,163.853,VALID,0,VALID,22.4758,VALID,22,VALID,0,
2011-07-26, 03:37:04,VALID,1004.28,VALID,0,INVALID,163.868,VALID,0,VALID,22.5342,VALID,22,VALID,0,
2011-07-26, 03:38:04,VALID,1004.32,VALID,0,INVALID,163.853,VALID,0,VALID,22.5519,VALID,22,VALID,0,
2011-07-26, 03:39:04,VALID,1004.3,VALID,0,INVALID,163.876,VALID,0,VALID,22.5536,VALID,22,VALID,0,
2011-07-26, 03:40:04,VALID,1004.33,VALID,0,INVALID,163.845,VALID,0.100563,VALID,22.5536,VALID,22,VALID,0,
2011-07-26, 03:41:04,VALID,1004.33,VALID,0,INVALID,163.861,VALID,0,VALID,22.5908,VALID,22,VALID,0,
2011-07-26, 03:42:04,VALID,1004.34,VALID,0,INVALID,163.853,VALID,0,VALID,22.5519,VALID,22,VALID,0,
2011-07-26, 03:43:04,VALID,1004.31,VALID,0,INVALID,163.922,VALID,0,VALID,22.5325,VALID,22,VALID,0,
2011-07-26, 03:44:04,VALID,1004.3,VALID,0,INVALID,163.853,VALID,0,VALID,22.5342,VALID,22,VALID,0,
2011-07-26, 03:45:04,VALID,1004.33,VALID,0,INVALID,163.868,VALID,0,VALID,22.5147,VALID,22,VALID,0,
2011-07-26, 03:46:04,VALID,1004.3,VALID,0,INVALID,163.868,VALID,0,VALID,22.5147,VALID,22,VALID,0,
2011-07-26, 03:47:04,VALID,1004.27,VALID,0,INVALID,163.861,VALID,0,VALID,22.5147,VALID,22,VALID,0,
2011-07-26, 03:48:04,VALID,1004.29,VALID,0,INVALID,163.868,VALID,0,VALID,22.4563,VALID,22,VALID,0,
2011-07-26, 03:49:04,VALID,1004.3,VALID,0,INVALID,163.845,VALID,0,VALID,22.4953,VALID,22,VALID,0,
2011-07-26, 03:50:04,VALID,1004.28,VALID,0,INVALID,163.838,VALID,0,VALID,22.4953,VALID,22,VALID,0,
2011-07-26, 03:51:04,VALID,1004.3,VALID,0,INVALID,163.899,VALID,0,VALID,22.4563,VALID,22,VALID,0,
2011-07-26, 03:52:04,VALID,1004.31,VALID,0,INVALID,163.861,VALID,0,VALID,22.5359,VALID,22,VALID,0,
2011-07-26, 03:53:04,VALID,1004.33,VALID,0,INVALID,163.868,VALID,0,VALID,22.5519,VALID,22,VALID,0,
2011-07-26, 03:54:04,VALID,1004.33,VALID,0,INVALID,163.861,VALID,0,VALID,22.6332,VALID,22,VALID,0,
2011-07-26, 03:55:04,VALID,1004.33,VALID,0,INVALID,163.891,VALID,0,VALID,22.5925,VALID,22,VALID,0,
2011-07-26, 03:56:04,VALID,1004.32,VALID,0,INVALID,163.906,VALID,0,VALID,22.5731,VALID,22,VALID,0,
2011-07-26, 03:57:04,VALID,1004.32,VALID,0,INVALID,163.861,VALID,0,VALID,22.513,VALID,22,VALID,0,